This demonstration page uses our WeatherBlox Daily Observations layout. Learn more.

Left ArrowRight Arrow

36.19886, -115.1175

Hourly Observations for September 27, 2021

Temp ( °F °C ) Dew Point ( °F °C ) Humidity (%) Winds ( mph kmh ) Pressure ( in mb ) Visibility ( mi km ) Precip ( " mm )
12:53 am 00:53 Clear 78 25.6 56 13.3 47 47 ENE 8 13 29.87 1012 10 16 N/A
1:53 am 01:53 Clear 77 25 57 13.9 50 50 N 5 7 29.88 1012 10 16 N/A
2:53 am 02:53 Clear 75 23.9 58 14.4 55 55 N 6 9 29.88 1012 10 16 N/A
3:53 am 03:53 Clear 74 23.3 58 14.4 57 57 NNE 7 11 29.88 1012 10 16 N/A
4:53 am 04:53 Clear 74 23.3 58 14.4 57 57 NNE 7 11 29.88 1012 10 16 N/A
5:53 am 05:53 Clear 73 22.8 58 14.4 59 59 NNE 6 9 29.89 1012 10 16 N/A
6:53 am 06:53 Sunny 72 22.2 57 13.9 59 59 NE 6 9 29.92 1013 10 16 N/A
7:53 am 07:53 Sunny 74 23.3 57 13.9 56 56 E 7 11 29.93 1014 10 16 N/A
8:53 am 08:53 Sunny 77 25 57 13.9 50 50 VRB 6 9 29.94 1014 10 16 N/A
9:53 am 09:53 Sunny 79 26.1 56 13.3 45 45 ESE 9 15 29.94 1014 10 16 N/A
10:53 am 10:53 Sunny 80 26.7 56 13.3 44 44 VRB 6 9 29.94 1014 10 16 N/A
11:53 am 11:53 Sunny 83 28.3 56 13.3 40 40 E 12 19 29.91 1013 10 16 N/A
12:53 pm 12:53 Sunny 86 30 56 13.3 36 36 E 8 13 29.88 1012 10 16 N/A
1:53 pm 13:53 Sunny 88 31.1 55 12.8 33 33 E 6 9 29.85 1011 10 16 N/A
2:53 pm 14:53 Sunny 90 32.2 54 12.2 29 29 S 7 11 29.81 1010 10 16 N/A
3:53 pm 15:53 Sunny 91 32.8 55 12.8 30 30 ESE 6 9 29.79 1009 10 16 N/A
4:53 pm 16:53 Sunny 92 33.3 55 12.8 29 29 E 9 15 29.77 1008 10 16 N/A
5:53 pm 17:53 Sunny 90 32.2 55 12.8 31 31 ESE 15 24 29.75 1008 10 16 N/A
6:53 pm 18:53 Clear 87 30.6 56 13.3 35 35 E 13 20 29.75 1008 10 16 N/A
7:53 pm 19:53 Clear 85 29.4 55 12.8 36 36 ENE 9 15 29.76 1008 10 16 N/A
8:53 pm 20:53 Clear 83 28.3 54 12.2 37 37 E 5 7 29.77 1008 10 16 N/A
9:53 pm 21:53 Clear 83 28.3 53 11.7 36 36 N N/A 29.77 1008 10 16 N/A
10:53 pm 22:53 Clear 80 26.7 51 10.6 37 37 E 6 9 29.78 1009 10 16 N/A
11:53 pm 23:53 Clear 78 25.6 53 11.7 42 42 E 6 9 29.77 1008 10 16 N/A

Powered by AerisWeather